Wind_Speed
6 12 3 13 11 12 12 7 10 3 6 10 9 3 4 2 3 3 3 5 7 9 10 13 14 13 11 8 5 4 5 6 3 5 6 7 7 7 6 6 6 4 4 4
9 1 8 6 8 10 11 12 12 1 4 7 12 10 7 6 2 1 1 4 5 7 10 11 12 11 10 8 7 6 5 6 4 5 5 8 6 7 9 8 9 10 12 9
12 10 1 5 2 9 10 10 11 8 8 9 14 15 15 8 6 4 3 2 3 5 8 9 10 11 10 9 8 7 7 8 6 8 7 7 9 12 12 12 10 8 8 11
6 3 2 5 0 9 13 10 8 12 12 13 3 11 11 15 10 7 4 1 3 4 6 8 9 10 9 9 9 9 10 11 9 13 13 13 14 17 17 16 18 21 18 18
7 2 4 5 7 9 13 11 11 11 12 14 16 10 9 10 12 9 6 3 6 7 8 9 10 11 12 12 13 13 14 14 14 14 16 15 15 17 17 19 22 27 26 24
8 3 3 7 6 4 9 12 13 13 11 11 15 3 5 9 9 5 6 6 6 11 13 11 13 15 17 19 20 19 20 20 19 19 18 19 22 22 22 22 23 24 25 24
9 10 6 4 12 8 6 9 8 6 9 7 6 5 7 8 5 8 7 5 8 11 16 16 21 24 25 24 23 24 23 24 23 22 21 21 23 25 27 27 26 27 26 25
11 6 4 2 5 8 8 7 6 6 7 13 12 9 7 8 5 2 2 6 12 19 18 24 28 28 27 26 26 27 27 26 26 26 26 26 26 26 27 29 28 26 25 26
7 2 6 4 3 5 5 4 7 7 13 10 7 1 14 7 3 6 11 10 17 15 21 24 27 30 29 29 28 28 30 28 28 28 30 30 29 29 29 32 32 31 28 28
3 10 4 7 5 4 6 6 5 4 4 9 10 13 8 2 5 11 11 18 20 26 27 27 28 28 29 29 30 30 31 31 30 31 31 32 32 31 29 29 30 34 36 33
3 3 4 3 10 4 6 9 5 3 6 6 8 7 10 7 9 12 20 22 22 20 26 32 30 30 32 30 32 34 33 34 35 33 34 34 32 29 30 33 35 34 34 36
5 4 9 6 7 4 7 9 3 3 7 8 11 10 4 6 11 14 16 15 17 25 32 31 28 30 33 35 35 35 35 36 37 34 31 29 30 33 31 28 28 27 30 26
2 3 5 8 9 5 7 8 7 7 6 10 9 9 0 19 20 21 25 29 29 29 32 34 34 34 35 35 36 37 35 33 32 32 32 34 30 31 30 31 33 32 30 31
2 8 10 10 14 7 7 9 10 10 7 12 13 19 19 18 16 22 26 28 30 31 34 32 32 37 37 36 35 35 33 32 30 30 28 29 31 30 33 33 34 33 30 30
4 11 12 12 12 12 13 13 13 14 14 14 17 19 18 15 17 22 27 29 29 33 31 34 38 37 38 40 37 37 30 27 30 37 35 33 33 34 33 31 31 31 29 29
6 8 8 13 14 13 15 15 15 14 14 15 16 18 16 21 21 25 27 29 30 29 35 38 34 41 40 39 37 32 27 37 36 33 32 32 32 32 30 31 32 30 30 30
8 7 7 12 6 8 13 10 9 10 7 10 14 16 19 17 20 25 29 30 28 36 38 33 37 38 37 35 30 30 42 36 33 31 32 30 30 28 28 29 27 30 29 29
8 9 9 11 12 13 3 3 4 7 10 11 13 15 16 19 22 26 27 27 34 36 34 33 39 36 36 29 40 35 33 32 31 32 30 28 27 27 28 26 27 27 28 25
10 9 9 8 10 13 14 5 1 3 10 14 11 11 19 22 25 26 24 31 33 35 32 37 32 34 29 39 35 33 31 32 31 29 27 27 26 27 26 27 24 24 23 25
9 10 9 10 10 8 4 6 4 3 7 5 7 16 20 22 12 15 32 33 34 32 34 33 33 27 38 36 32 28 29 29 28 28 26 25 26 24 23 22 21 23 25 25
8 9 12 11 11 10 5 10 4 3 4 11 16 20 21 16 24 31 32 34 33 31 36 33 28 35 36 33 27 29 31 31 29 27 27 23 21 19 19 19 21 22 21 21
8 6 6 7 12 13 11 10 4 4 13 15 18 19 21 24 28 30 33 34 32 37 33 28 29 34 34 31 28 30 31 28 26 21 22 20 18 16 18 20 20 19 21 19
6 10 5 5 2 3 7 6 6 11 16 18 18 18 22 24 28 30 33 31 35 31 29 23 33 34 33 31 27 29 29 26 24 21 19 17 19 16 16 14 16 20 15 14
11 9 6 6 5 8 12 12 12 12 13 14 15 19 21 25 28 30 30 32 30 30 25 27 32 32 34 31 27 25 27 24 20 18 20 21 18 18 16 15 16 16 12 10
5 7 8 12 15 14 13 10 8 9 11 13 15 18 20 24 26 27 30 30 28 28 24 30 29 29 31 30 27 23 25 22 17 16 22 19 19 21 19 16 15 15 14 11
17 13 10 8 7 4 5 4 7 9 12 13 16 18 21 21 23 27 27 26 24 28 23 29 30 27 29 28 25 21 22 21 17 20 24 22 22 24 16 16 16 13 14 13
Wind_Direction
236 261 297 16 349 333 325 311 292 261 83 289 276 319 142 205 219 116 62 50 55 53 45 44 44 43 41 37 23 7 344 344 325 290 259 259 249 238 239 245 250 272 273 297
235 342 33 326 307 295 293 282 272 290 194 285 272 239 166 223 187 173 94 77 47 48 46 43 41 41 39 37 37 26 12 349 348 313 287 274 283 254 250 248 259 281 288 292
5 83 144 278 258 315 263 291 321 310 310 233 255 259 182 193 191 163 137 113 73 29 18 21 28 30 27 24 22 11 359 343 331 308 315 294 285 284 269 268 262 266 270 284
53 54 297 257 165 339 303 13 305 290 280 277 144 285 172 177 202 203 193 221 349 354 355 356 350 358 358 358 356 352 351 347 335 330 322 312 299 288 275 281 284 290 280 278
102 160 306 275 16 333 317 333 303 296 281 280 267 233 84 151 206 194 210 269 298 316 330 331 333 333 330 331 327 323 322 319 315 315 314 302 292 285 285 281 274 267 267 280
94 49 330 8 300 297 302 277 262 249 248 251 233 275 243 177 208 242 170 242 290 307 312 314 314 316 312 311 309 307 309 308 305 304 295 288 288 288 285 280 277 282 286 283
184 184 130 315 310 177 287 318 297 235 205 255 99 278 302 73 51 352 348 313 296 301 299 316 320 314 309 306 307 306 304 304 304 303 300 293 287 282 278 283 285 282 281 280
286 183 182 66 354 323 302 318 289 305 323 316 319 241 125 86 94 23 319 287 297 295 311 307 303 303 309 311 309 306 302 301 301 300 299 296 290 285 280 278 278 276 274 275
326 110 118 60 353 307 18 272 14 299 279 263 279 27 132 92 163 239 249 282 296 300 299 303 309 314 315 308 305 304 303 300 301 301 300 297 295 290 285 280 278 277 278 278
8 287 145 97 249 170 300 16 242 201 291 312 333 300 75 224 298 338 315 303 312 320 316 310 312 309 304 303 303 303 301 299 299 298 296 295 295 292 283 273 272 273 276 281
329 247 165 228 209 317 181 204 224 319 300 305 307 335 42 18 330 313 307 315 331 317 314 307 309 302 305 311 310 307 305 303 299 296 295 294 291 291 291 291 287 288 285 282
66 301 273 248 57 289 285 301 297 277 279 285 308 307 55 333 284 296 298 321 311 292 304 309 314 315 318 314 309 308 308 304 300 298 297 296 293 294 289 285 288 284 285 282
152 240 282 246 184 208 250 243 226 260 279 273 294 280 337 330 334 326 330 323 321 315 316 319 318 319 314 314 314 315 312 306 304 302 297 295 291 287 286 284 284 284 283 283
345 267 259 267 332 334 261 236 245 254 267 272 276 303 307 328 330 334 326 322 320 320 317 318 324 320 317 321 320 314 310 307 303 298 295 289 287 287 287 286 285 285 277 276
257 263 267 263 283 285 278 275 279 275 274 277 289 301 313 329 336 325 324 319 318 320 324 328 322 323 323 318 315 312 307 304 299 296 291 285 284 287 290 282 285 287 282 276
210 269 274 281 267 262 278 278 276 271 273 275 291 299 325 328 320 324 320 323 328 325 325 322 327 323 318 318 314 310 305 303 308 303 300 299 298 297 291 289 290 289 284 280
233 270 264 283 273 282 280 291 249 290 287 292 293 314 319 319 321 322 319 325 328 330 324 328 323 321 323 319 314 305 307 311 309 303 304 302 303 298 295 293 287 291 289 287
240 249 272 271 290 277 68 92 345 292 288 297 297 312 318 310 319 315 319 329 330 325 328 327 324 322 320 313 310 318 317 313 310 307 309 307 308 299 297 293 291 292 291 289
237 254 267 263 280 303 261 167 72 84 296 300 292 322 305 316 313 310 329 331 324 328 328 327 321 321 314 320 327 324 317 315 316 315 314 311 309 307 298 293 293 293 288 290
227 232 263 268 273 276 26 114 91 320 285 55 303 314 313 315 311 318 327 325 329 328 329 326 326 318 322 333 329 323 324 325 325 325 319 317 313 308 297 298 295 291 292 296
211 225 233 243 253 258 104 138 143 259 301 336 318 310 317 316 314 317 321 329 326 331 329 328 321 321 333 336 330 331 334 331 329 322 317 322 319 311 309 301 298 303 303 298
219 216 253 249 264 274 123 138 203 275 312 304 310 311 312 314 315 320 327 326 330 329 331 326 318 330 339 343 338 333 334 333 333 330 326 324 322 316 307 307 308 305 305 300
254 243 273 192 262 109 205 244 276 286 300 307 309 311 309 314 321 326 327 328 331 334 329 322 328 334 342 344 341 336 339 338 342 343 338 341 333 329 332 326 323 318 317 317
198 240 241 268 266 276 239 257 275 285 294 306 304 304 319 318 324 326 325 331 334 330 326 319 332 335 336 341 340 338 343 345 349 345 344 350 345 341 340 333 337 347 347 346
292 162 235 255 265 261 255 263 284 287 299 302 307 316 319 323 325 326 329 330 330 326 320 326 331 331 334 338 338 338 345 349 354 347 351 360 1 353 346 348 356 5 11 16
249 236 245 258 309 262 256 269 277 288 298 308 315 318 320 324 324 326 329 327 327 325 320 327 333 332 333 335 337 337 343 349 346 346 355 359 1 354 5 12 19 25 34 30
Height
1531 1525 1521 1520 1524 1524 1522 1524 1525 1520 1526 1535 1528 1532 1539 1548 1547 1548 1552 1555 1557 1559 1559 1557 1556 1555 1554 1553 1553 1553 1552 1549 1550 1550 1550 1549 1549 1549 1550 1549 1548 1548 1547 1547
1530 1528 1531 1533 1533 1531 1527 1528 1525 1521 1527 1537 1528 1534 1538 1546 1549 1551 1552 1556 1557 1558 1559 1559 1558 1557 1556 1556 1555 1554 1552 1551 1550 1551 1549 1547 1547 1548 1547 1547 1546 1544 1543 1544
1532 1533 1539 1536 1534 1535 1527 1533 1529 1532 1526 1528 1532 1530 1530 1544 1549 1552 1554 1556 1559 1560 1560 1560 1559 1558 1558 1557 1555 1554 1553 1551 1549 1547 1548 1548 1547 1545 1545 1544 1542 1543 1541 1541
1536 1540 1539 1537 1539 1543 1541 1533 1537 1537 1537 1538 1522 1539 1528 1535 1544 1550 1553 1555 1558 1560 1560 1560 1560 1559 1558 1557 1556 1555 1553 1550 1549 1546 1544 1543 1543 1542 1541 1540 1538 1537 1536 1536
1539 1541 1541 1541 1546 1548 1541 1541 1539 1538 1539 1536 1526 1532 1526 1531 1538 1542 1551 1556 1558 1559 1559 1560 1560 1559 1558 1556 1555 1553 1552 1550 1548 1545 1542 1541 1540 1539 1538 1536 1533 1532 1532 1530
1538 1546 1546 1546 1548 1549 1547 1541 1535 1532 1532 1540 1518 1522 1524 1520 1531 1533 1543 1552 1557 1560 1559 1558 1558 1557 1556 1554 1553 1551 1548 1546 1543 1541 1539 1537 1534 1532 1531 1529 1527 1526 1525 1525
1540 1540 1547 1551 1546 1541 1541 1542 1543 1542 1535 1534 1520 1536 1526 1532 1537 1542 1544 1550 1554 1556 1556 1554 1554 1554 1552 1550 1548 1547 1545 1541 1539 1536 1533 1531 1529 1527 1524 1523 1521 1519 1518 1518
1539 1547 1546 1552 1552 1552 1547 1551 1552 1566 1547 1532 1518 1531 1529 1536 1544 1550 1552 1555 1556 1554 1552 1553 1551 1548 1546 1545 1544 1543 1541 1537 1535 1531 1528 1525 1522 1520 1518 1516 1515 1513 1511 1511
1544 1543 1550 1552 1554 1555 1548 1549 1550 1557 1546 1541 1517 1515 1520 1540 1546 1550 1548 1550 1550 1553 1552 1550 1547 1546 1543 1542 1540 1538 1535 1532 1529 1526 1522 1519 1516 1513 1510 1508 1506 1505 1503 1503
1546 1556 1545 1551 1555 1555 1554 1553 1557 1548 1572 1562 1526 1528 1531 1537 1537 1541 1543 1544 1545 1546 1546 1544 1543 1543 1540 1536 1533 1531 1528 1524 1522 1519 1516 1512 1509 1507 1502 1497 1494 1493 1492 1492
1550 1556 1550 1553 1549 1544 1550 1549 1551 1556 1555 1560 1554 1534 1529 1539 1543 1546 1545 1544 1548 1549 1548 1542 1538 1537 1533 1529 1526 1524 1521 1518 1514 1512 1508 1505 1501 1497 1495 1492 1489 1486 1483 1483
1553 1554 1554 1542 1544 1551 1549 1548 1549 1564 1562 1547 1549 1546 1537 1542 1542 1543 1542 1545 1551 1547 1538 1534 1532 1530 1527 1524 1521 1517 1514 1511 1507 1503 1500 1496 1492 1490 1486 1483 1480 1478 1475 1474
1555 1555 1562 1547 1548 1551 1552 1546 1548 1552 1557 1562 1562 1550 1530 1533 1536 1539 1540 1540 1539 1538 1534 1530 1527 1525 1523 1519 1516 1511 1508 1504 1500 1497 1494 1489 1486 1482 1479 1476 1473 1470 1467 1465
1561 1556 1555 1556 1541 1541 1547 1544 1544 1547 1560 1556 1547 1537 1533 1533 1536 1540 1541 1540 1537 1534 1530 1526 1524 1522 1518 1514 1511 1507 1503 1498 1493 1490 1486 1482 1478 1475 1470 1467 1463 1461 1459 1457
1561 1559 1548 1543 1541 1541 1541 1541 1540 1542 1540 1547 1540 1538 1534 1535 1538 1540 1539 1536 1533 1529 1526 1523 1521 1518 1514 1511 1506 1502 1497 1491 1486 1481 1476 1472 1469 1465 1460 1457 1455 1452 1450 1449
1558 1557 1550 1549 1540 1538 1540 1536 1536 1536 1537 1538 1537 1537 1535 1538 1539 1540 1537 1533 1529 1529 1524 1521 1517 1516 1511 1505 1500 1494 1490 1484 1478 1472 1467 1463 1459 1455 1451 1448 1445 1443 1441 1439
1555 1552 1550 1551 1534 1541 1545 1529 1529 1531 1533 1539 1544 1537 1540 1539 1540 1539 1535 1531 1530 1526 1521 1517 1516 1512 1505 1500 1494 1487 1480 1474 1469 1464 1459 1455 1451 1447 1443 1440 1438 1435 1433 1430
1552 1554 1550 1548 1541 1554 1529 1536 1538 1541 1540 1540 1540 1541 1542 1541 1540 1538 1534 1533 1527 1523 1518 1515 1512 1506 1500 1494 1486 1478 1472 1467 1461 1456 1452 1448 1444 1440 1437 1433 1431 1428 1426 1423
1554 1551 1550 1551 1543 1531 1525 1535 1544 1553 1548 1544 1542 1543 1542 1539 1537 1534 1531 1529 1525 1520 1516 1513 1508 1501 1494 1487 1479 1472 1466 1460 1455 1450 1445 1441 1437 1433 1430 1427 1424 1422 1420 1416
1550 1552 1551 1544 1547 1552 1530 1539 1545 1548 1550 1543 1545 1543 1540 1538 1534 1528 1528 1525 1521 1517 1513 1509 1502 1496 1489 1480 1473 1467 1461 1455 1449 1444 1439 1435 1431 1427 1424 1422 1419 1416 1413 1410
1549 1547 1546 1540 1541 1532 1528 1538 1546 1552 1549 1544 1544 1542 1538 1536 1534 1528 1524 1521 1518 1514 1510 1504 1498 1491 1483 1475 1469 1463 1456 1450 1445 1439 1435 1430 1426 1423 1420 1417 1414 1410 1408 1404
1539 1543 1539 1537 1539 1541 1534 1542 1551 1544 1543 1542 1541 1539 1537 1534 1530 1525 1521 1518 1514 1510 1504 1500 1493 1486 1479 1472 1466 1458 1452 1446 1440 1435 1431 1427 1423 1420 1417 1413 1409 1406 1402 1399
1540 1532 1534 1535 1531 1536 1537 1538 1540 1541 1540 1539 1538 1537 1534 1530 1527 1523 1519 1515 1511 1507 1501 1497 1490 1482 1476 1469 1463 1455 1449 1443 1437 1433 1429 1425 1421 1417 1413 1409 1406 1401 1398 1396
1527 1532 1535 1534 1529 1530 1533 1537 1538 1538 1538 1537 1536 1534 1531 1528 1525 1521 1517 1512 1508 1504 1499 1493 1486 1479 1472 1466 1459 1454 1448 1442 1437 1433 1429 1424 1419 1416 1412 1407 1404 1400 1396 1393
1521 1527 1529 1528 1527 1528 1530 1532 1534 1535 1536 1535 1533 1531 1529 1527 1524 1520 1514 1511 1506 1501 1496 1490 1483 1477 1470 1463 1457 1452 1447 1442 1437 1434 1429 1425 1420 1416 1411 1407 1404 1400 1397 1391
1523 1524 1526 1526 1524 1526 1529 1532 1533 1534 1533 1532 1531 1529 1527 1525 1522 1517 1513 1509 1503 1498 1492 1486 1480 1475 1468 1461 1456 1451 1447 1442 1438 1435 1431 1427 1422 1417 1412 1409 1405 1402 1399 1396